Theta_e
335 335 335 334 333 333 332 332 330 328 327 326 326 326 326 326 325 325 325 325 324 323 322 322 322 322 323 323 323 322 321 320 321 322 322 323 324 325 326 327 327 327 327 328 328 329 329 329 330 330 330 331 331 331 331 331 331 332 332 332 332 332 332 332 332 332 332 331 331 331 331 329 328 327 324 323 322 323 319 313 312 315 319 323 324
335 335 335 334 333 333 332 331 328 327 327 327 326 326 326 326 325 325 325 324 323 321 320 319 319 320 320 321 321 321 321 322 324 325 326 326 327 327 327 327 326 326 327 327 328 328 329 329 329 329 329 330 330 330 331 331 331 331 331 331 331 331 331 332 332 331 331 331 331 331 331 330 329 328 325 324 323 323 320 314 312 315 318 322 324
335 334 334 333 331 331 329 327 326 327 328 327 326 326 326 325 324 323 322 321 319 318 318 318 318 318 319 321 322 324 325 326 327 327 328 327 327 326 326 326 325 325 325 325 326 326 327 327 327 327 327 327 328 328 329 330 330 331 330 330 330 330 331 331 331 331 331 332 332 331 332 331 329 329 327 325 324 323 322 316 312 314 319 322 324
334 333 333 332 329 328 326 326 328 329 329 327 326 324 324 322 321 320 319 318 317 317 317 318 319 320 322 325 326 327 328 328 328 328 327 326 326 326 326 325 324 324 324 324 324 325 325 325 325 325 326 326 327 328 328 329 330 330 330 330 330 330 330 330 330 331 331 333 333 332 332 332 330 329 328 327 325 323 322 318 312 313 318 322 324
333 332 332 330 328 327 327 328 330 331 330 327 324 323 322 320 319 317 317 316 316 317 319 321 323 325 327 328 328 328 328 327 328 327 326 326 326 325 325 324 323 323 323 323 323 324 324 324 325 325 325 326 326 327 328 329 329 329 329 329 329 329 329 329 329 330 331 332 332 332 332 332 331 330 328 328 327 324 322 319 313 311 316 322 324
334 333 333 331 328 327 328 330 331 332 330 327 325 324 322 319 316 316 316 316 317 319 322 325 326 327 328 328 327 328 328 328 327 326 326 326 325 325 324 323 323 323 323 323 323 324 324 325 325 325 325 325 325 326 328 328 329 329 328 328 328 328 328 329 329 329 330 331 331 332 332 332 332 330 329 328 328 326 323 319 314 311 314 321 324
334 334 334 331 329 329 330 331 331 331 329 328 327 326 321 317 315 315 316 317 318 321 324 326 327 327 327 327 327 328 327 327 326 326 326 325 324 324 323 323 323 323 324 324 324 324 325 325 325 325 325 324 324 325 326 327 328 328 328 328 328 327 327 328 329 329 329 330 330 331 332 332 332 331 330 328 328 327 324 321 315 311 312 319 324
335 335 334 331 331 331 330 329 329 329 328 327 327 324 318 315 315 315 316 317 320 323 325 326 326 326 327 327 328 328 327 326 326 325 325 324 323 322 322 322 323 324 324 324 324 325 325 325 325 325 324 324 324 324 324 325 326 327 328 328 328 328 328 329 329 328 329 330 330 331 332 332 332 332 331 328 328 328 326 322 317 312 311 318 323
335 334 333 331 332 331 329 329 330 328 326 325 323 319 316 315 315 315 316 318 321 323 325 326 326 326 327 327 328 328 326 326 326 325 324 323 321 321 321 322 323 323 324 324 324 324 324 325 325 324 324 324 323 323 323 324 325 326 327 328 328 328 329 329 329 328 329 329 330 330 331 331 331 332 331 329 327 328 327 324 320 314 311 316 322
334 333 332 332 332 330 330 330 331 329 324 321 318 316 315 315 315 316 317 319 322 323 324 325 325 326 326 327 328 328 325 324 324 324 323 322 320 321 321 322 322 323 323 323 323 323 323 323 324 324 324 323 323 323 323 323 323 324 325 326 327 327 327 327 327 328 329 329 329 330 330 331 331 331 331 330 327 327 328 326 322 317 311 314 321
333 332 332 331 330 329 330 331 331 328 322 317 316 315 315 315 315 317 318 320 322 323 324 324 325 325 326 327 328 327 323 321 321 322 321 321 320 320 321 321 322 322 323 322 322 322 321 321 322 323 323 323 322 321 321 321 321 322 323 324 325 326 326 325 326 328 328 329 329 330 330 330 331 331 332 330 328 328 328 327 324 319 312 311 320
332 332 331 330 329 328 330 331 330 325 318 316 316 316 315 315 316 317 318 321 322 323 323 323 323 323 324 326 328 327 325 322 319 320 320 320 320 320 319 320 321 322 322 322 321 320 319 319 320 321 321 321 321 321 320 320 320 321 321 321 323 325 326 326 326 327 328 329 329 329 330 330 330 331 332 331 329 329 328 328 325 321 314 310 319
331 330 330 329 329 330 331 331 326 320 317 316 316 315 315 316 316 317 319 320 321 322 321 320 321 321 322 324 326 326 327 323 318 319 319 319 320 319 318 319 320 321 321 321 320 318 317 318 318 318 318 318 318 319 319 319 320 320 320 320 321 324 326 326 325 326 328 329 329 329 330 330 329 331 332 331 330 330 329 328 326 324 317 309 317
330 329 329 329 330 331 331 327 321 317 316 316 316 316 316 316 317 317 318 319 320 320 319 319 319 318 318 321 323 324 326 322 317 319 319 318 319 320 318 318 319 319 319 318 317 316 316 316 316 316 316 316 317 317 317 318 318 319 319 319 320 322 325 326 326 326 327 328 329 329 329 330 329 330 332 331 330 329 329 328 326 325 320 311 314
329 329 329 330 331 332 329 322 318 316 317 317 317 316 317 317 317 318 319 319 320 319 318 318 318 317 317 320 321 322 326 321 317 319 320 319 320 319 319 317 317 318 316 314 313 314 314 314 315 315 315 315 315 316 316 316 317 318 318 318 318 320 322 324 325 326 327 327 328 328 328 329 330 330 331 331 330 330 329 328 326 325 322 313 311
328 328 329 331 332 330 325 319 317 316 317 317 317 317 317 317 317 318 319 319 319 318 318 318 317 317 317 320 319 320 324 319 316 320 319 319 319 318 319 318 316 315 314 312 311 311 312 313 313 313 313 313 313 314 314 314 315 316 317 318 318 318 320 322 324 325 326 327 327 328 328 328 330 330 331 331 330 330 329 328 327 325 324 318 310
327 329 331 332 331 326 321 318 317 317 317 317 316 317 316 317 317 317 318 319 318 318 317 317 316 316 316 319 320 321 321 315 316 320 318 318 319 318 318 317 315 314 312 311 310 309 310 310 311 311 311 311 310 311 311 311 312 314 315 316 317 318 319 321 322 324 325 326 327 328 329 329 329 330 331 331 331 330 329 329 328 327 326 322 313
329 331 332 331 327 323 319 318 317 317 317 316 317 317 316 317 317 317 317 317 317 317 317 316 316 315 314 315 316 317 317 315 317 319 318 317 317 317 318 317 315 312 310 310 308 308 308 307 308 308 308 307 307 307 307 308 309 311 313 314 316 317 318 319 321 323 324 325 326 327 328 329 329 329 329 330 330 330 329 329 329 328 327 326 318
331 332 332 329 325 320 318 318 318 318 317 316 317 316 316 317 317 317 316 316 316 316 316 316 315 314 313 313 312 312 313 315 317 318 318 318 317 316 315 315 315 311 308 307 306 305 305 304 304 304 304 303 303 303 304 306 307 308 310 312 313 315 316 317 319 321 322 324 326 327 328 328 328 330 329 329 330 330 329 329 329 329 328 328 325
331 332 332 329 323 318 318 318 318 317 317 316 316 316 317 317 316 315 315 315 315 315 314 314 314 313 312 312 312 313 313 313 315 316 317 317 317 316 312 312 314 311 305 304 303 302 302 301 300 300 299 299 299 300 301 303 305 306 307 309 312 313 314 315 317 318 320 322 324 326 327 328 328 329 330 330 331 330 329 329 329 330 329 328 328
332 332 330 327 321 318 318 318 318 317 317 317 316 316 316 316 315 314 314 314 313 313 313 313 312 312 311 311 311 313 314 313 313 313 313 314 316 316 312 311 314 310 302 300 300 300 299 298 298 298 297 298 298 298 299 301 303 304 305 307 309 311 312 314 315 317 319 319 322 324 326 327 328 328 329 329 330 330 330 330 330 330 330 329 329
332 331 327 323 319 318 318 319 318 317 317 317 316 316 315 314 314 313 313 313 312 312 312 312 312 311 310 310 309 309 310 310 310 310 311 311 312 314 312 310 314 310 299 298 299 298 298 297 298 298 297 298 297 298 298 299 302 303 303 305 307 309 310 312 313 315 317 318 319 321 323 325 326 327 328 328 329 330 330 331 331 330 330 329 328
332 329 324 320 318 319 319 318 318 318 317 317 316 315 314 313 313 312 312 312 312 312 312 311 311 310 309 307 306 305 305 306 308 308 309 307 307 311 309 307 312 308 298 298 298 297 299 298 298 298 298 298 298 298 298 298 300 302 302 303 304 306 308 310 311 313 314 316 317 318 320 322 324 326 327 328 328 329 330 330 331 329 329 329 329
330 327 323 319 318 319 319 318 319 318 317 317 316 314 313 313 312 312 312 312 312 312 312 311 310 308 306 303 303 303 301 302 304 303 303 301 300 304 304 303 308 304 297 298 299 298 299 298 299 299 298 299 298 298 299 298 299 300 301 301 302 303 305 307 308 310 311 313 315 316 317 319 321 324 325 327 328 328 329 329 330 330 329 330 330
328 325 321 319 318 318 318 319 319 318 317 316 315 314 313 313 312 312 312 312 311 311 311 310 307 304 302 301 301 300 299 299 300 299 298 298 297 299 299 299 303 301 298 298 298 299 299 299 299 299 299 299 299 299 299 299 299 299 300 300 300 301 302 303 305 306 308 310 312 314 315 317 319 321 323 325 327 328 329 329 329 330 330 329 329
327 323 319 318 319 319 319 319 319 318 317 315 314 313 312 313 312 311 311 311 310 310 309 307 303 300 299 299 299 299 298 298 298 297 297 297 297 298 298 299 300 299 298 298 298 299 299 299 300 299 300 300 300 300 300 299 300 299 299 299 299 300 300 301 302 304 305 307 309 311 313 315 317 319 321 323 325 327 328 329 329 329 329 329 329
327 324 319 318 319 319 319 319 318 317 316 314 313 313 313 313 312 310 309 308 308 309 307 303 300 299 299 299 298 298 298 297 297 297 297 297 297 297 298 300 301 300 299 298 299 300 299 300 300 300 300 301 300 301 301 301 301 300 300 300 300 300 300 301 302 303 304 305 307 309 311 314 316 317 319 320 322 324 326 328 329 328 329 329 330
328 325 320 318 319 319 319 318 318 317 315 314 313 313 313 312 310 308 307 306 306 307 303 299 298 299 298 298 298 298 297 297 297 297 297 297 297 297 297 298 301 303 303 301 299 300 300 300 300 300 301 301 301 301 301 302 302 301 301 301 301 301 301 302 303 304 304 304 306 307 309 312 314 316 318 319 320 322 324 326 327 328 328 329 328
329 325 320 319 319 319 318 318 317 315 314 313 313 313 312 309 307 306 304 303 304 303 299 298 298 298 298 298 298 298 297 297 297 297 297 297 297 297 297 297 298 300 304 303 300 299 300 299 300 300 300 301 301 301 302 302 302 302 302 302 302 302 302 303 303 304 304 305 306 307 309 310 312 314 316 317 319 320 322 323 325 326 327 328 328
328 324 320 319 319 318 318 316 315 314 314 313 313 311 309 306 304 302 301 300 300 299 298 298 298 298 298 298 298 298 297 297 297 297 297 297 297 297 297 297 297 297 300 303 301 299 299 299 299 300 300 300 301 301 301 302 302 302 303 303 303 304 304 303 303 304 304 305 307 308 309 310 311 312 314 316 317 318 320 321 322 324 325 326 327
327 323 319 319 319 318 316 315 314 314 314 313 311 310 306 303 301 300 299 299 298 298 298 298 298 298 298 298 297 297 297 297 297 297 297 297 296 297 296 297 297 297 297 300 301 299 298 299 299 299 299 300 300 301 301 301 301 302 302 303 304 304 305 305 305 305 305 306 307 308 309 309 310 311 312 314 315 316 318 319 320 321 323 324 325
326 321 319 319 318 317 315 314 314 314 313 311 309 307 304 300 299 299 299 298 298 298 298 298 298 298 298 298 297 297 297 297 297 297 297 296 296 296 297 296 297 297 297 298 299 298 298 298 298 298 298 298 299 300 300 300 301 301 302 302 303 303 304 305 305 306 306 307 307 308 308 309 310 310 311 312 313 314 315 316 318 319 320 322 323
325 321 319 319 318 316 314 314 314 313 312 310 307 305 301 299 299 299 298 298 298 298 298 298 298 297 297 297 297 297 297 297 297 297 296 296 296 296 296 296 296 296 297 297 297 298 297 297 297 297 298 298 298 298 299 300 300 300 301 301 302 302 303 303 304 305 305 306 306 306 307 308 308 309 310 311 311 312 313 314 315 316 318 319 321
324 321 319 319 317 315 314 314 313 313 312 309 305 303 300 298 299 299 298 298 298 298 298 298 297 297 297 297 297 297 297 297 297 297 296 296 296 296 296 296 296 296 296 296 296 296 296 296 297 297 297 297 297 297 298 299 299 299 300 301 301 301 301 302 302 303 303 303 304 304 305 306 306 307 308 309 310 311 311 312 313 314 315 317 319
324 321 319 318 317 315 314 314 313 313 313 310 305 301 299 298 298 298 298 298 298 298 298 298 297 297 297 297 297 296 296 297 296 296 296 296 296 296 296 296 296 296 296 296 296 296 296 296 296 296 296 296 296 297 297 298 298 299 299 300 300 301 301 301 301 301 302 302 302 303 303 304 304 304 305 306 307 308 310 311 312 313 313 315 316
323 321 319 318 317 316 314 314 314 314 313 311 305 300 298 298 298 298 298 297 298 298 298 298 298 298 297 297 296 296 296 296 296 296 296 296 296 296 296 296 296 296 295 295 296 295 295 295 295 295 296 295 296 296 296 297 297 298 298 299 299 300 300 300 300 301 301 301 301 302 302 302 303 303 303 304 304 305 307 308 309 311 312 313 314
323 321 319 318 317 317 316 315 315 314 314 312 305 299 298 297 297 297 297 297 298 298 298 298 298 298 297 297 296 296 296 296 296 296 296 296 296 296 296 295 295 295 295 295 295 295 295 295 295 295 295 295 295 295 296 296 296 297 297 297 298 298 299 299 299 300 300 300 301 301 301 302 302 302 302 303 303 303 304 305 306 307 308 310 311
323 322 320 318 317 317 316 316 315 314 314 312 305 299 298 297 297 297 297 297 298 298 297 298 298 298 297 297 297 296 296 296 296 296 296 296 296 295 295 295 295 295 295 295 295 295 295 294 294 294 294 294 295 295 295 295 296 296 296 297 297 297 297 298 298 299 299 299 300 300 301 301 301 302 302 302 302 303 303 303 304 304 305 306 307
323 322 319 318 317 317 316 316 316 315 314 313 306 299 297 297 297 297 297 297 298 298 297 298 298 298 297 297 297 297 296 296 296 296 296 296 296 295 295 295 295 295 295 295 295 295 295 294 294 294 294 294 294 294 294 295 295 295 295 296 296 296 296 297 297 298 298 298 299 299 300 301 301 301 302 302 302 302 303 303 304 304 304 304 305
323 322 320 318 317 317 316 316 315 315 314 313 307 299 297 297 296 296 296 297 298 298 297 298 298 298 297 297 297 297 297 297 297 296 296 296 295 295 295 295 295 295 295 295 295 294 294 294 294 293 293 293 293 294 294 294 294 295 295 295 295 296 296 296 296 297 297 297 298 299 299 300 300 301 301 302 302 302 302 303 303 304 304 304 305
323 321 319 318 317 317 316 316 315 315 314 314 308 300 297 297 296 296 296 297 298 298 297 298 298 298 298 297 297 297 297 297 297 297 296 296 295 295 295 295 295 295 295 295 295 294 294 294 294 293 293 293 293 293 293 294 294 294 295 295 295 295 295 295 296 296 296 297 297 297 298 299 299 300 300 301 301 301 302 302 303 303 304 304 304
322 321 319 318 318 317 317 316 316 315 314 314 309 300 296 297 296 296 296 296 297 298 297 297 298 298 298 298 298 298 298 298 298 297 296 296 295 295 295 295 295 295 295 295 295 294 294 294 293 293 293 293 292 292 293 293 293 294 294 294 294 295 295 295 295 295 296 296 296 296 297 297 298 298 299 299 300 300 300 301 302 303 303 304 304
322 320 319 318 318 318 317 316 316 315 314 313 310 301 296 297 296 296 296 296 297 298 298 297 297 298 298 298 298 298 298 298 298 298 297 296 295 295 295 295 294 294 295 295 295 294 294 293 293 293 293 292 292 292 292 292 293 293 293 294 294 294 294 294 295 295 295 295 296 295 295 296 297 297 297 298 298 299 299 300 301 302 303 303 304
321 320 318 318 318 317 317 316 316 315 314 313 309 301 296 296 296 296 296 296 297 298 298 297 297 298 299 299 298 299 299 298 298 298 297 296 295 295 295 294 294 294 294 294 294 294 294 293 293 293 293 293 292 292 292 292 293 293 293 293 293 294 294 294 294 294 295 295 295 295 295 295 295 295 295 296 297 298 298 299 300 301 302 303 303
321 319 318 318 318 317 317 316 316 315 313 312 308 300 296 296 296 296 296 295 296 297 297 297 297 297 298 299 298 299 299 299 299 298 298 297 296 295 295 294 294 294 294 294 294 294 294 293 293 293 292 292 292 292 292 292 292 292 292 293 293 293 293 293 294 294 294 294 294 294 294 295 295 295 294 295 296 296 297 298 299 300 301 302 303
320 319 318 318 317 317 317 316 316 314 313 312 307 299 296 296 296 296 296 295 296 296 296 296 296 296 297 298 299 299 299 299 299 298 298 297 296 296 295 294 294 294 294 294 294 294 293 293 293 293 292 292 292 292 292 292 292 292 292 292 293 293 293 293 293 293 293 293 294 294 294 294 294 294 294 294 295 295 296 297 298 299 300 301 302
319 319 318 318 317 317 317 316 315 313 312 310 305 298 296 296 296 296 296 295 296 296 296 296 296 296 297 298 298 298 298 299 299 298 299 298 297 296 295 295 294 294 294 294 294 294 294 293 293 293 293 292 292 292 292 292 292 292 292 292 292 292 292 292 292 292 293 293 293 293 293 293 293 293 293 294 294 295 295 296 297 298 299 300 301
319 318 318 317 317 317 317 316 314 312 311 309 302 297 296 296 296 296 296 295 295 296 296 295 296 296 296 297 298 298 298 298 298 298 299 299 297 296 296 295 294 294 294 294 294 294 294 294 294 293 293 292 292 292 292 292 292 292 292 292 292 292 292 292 292 292 292 292 293 293 293 292 293 293 293 293 294 294 295 295 296 297 298 299 300
318 317 317 317 317 316 316 314 313 311 309 305 300 296 296 296 296 296 296 295 295 295 295 295 295 296 296 296 297 297 297 297 298 298 299 299 298 297 296 295 295 294 294 294 294 294 294 294 294 293 293 292 292 292 292 292 292 292 292 292 293 292 292 292 292 292 292 292 292 292 292 292 292 293 293 293 293 294 294 295 295 296 297 298 299
317 317 317 317 316 315 314 313 312 310 306 301 297 296 296 296 295 296 295 295 295 295 295 295 295 295 295 295 296 296 297 297 297 298 298 299 298 297 296 295 295 295 294 294 294 294 294 294 294 293 293 292 292 292 292 292 292 292 292 292 292 292 291 291 292 292 292 291 292 292 292 292 292 292 293 293 293 293 294 294 295 295 296 297 298
317 317 317 316 314 313 312 311 310 307 301 297 296 296 296 296 295 295 295 295 295 295 295 295 295 295 295 295 295 295 296 296 296 297 298 298 298 297 296 296 296 295 294 294 294 294 294 294 294 293 293 292 292 292 292 292 292 292 292 292 291 291 291 291 292 293 293 291 291 292 291 291 291 291 292 293 293 293 293 293 294 295 295 296 297
Wind_Speed
6 5 4 3 2 1 1 2 4 6 7 8 9 10 10 11 11 12 12 13 14 15 15 16 16 16 16 16 16 16 17 17 17 17 16 16 16 16 16 16 16 16 17 17 17 17 17 18 19 19 20 20 20 20 20 20 20 21 21 22 23 24 24 26 27 27 26 25 24 22 20 17 16 16 16 16 15 15 16 17 18 16 14 13 12
6 5 4 3 2 1 2 4 6 7 8 9 10 10 11 12 12 13 13 14 15 16 16 16 15 15 15 15 15 15 15 15 15 15 15 15 14 15 15 15 15 15 15 15 15 15 16 17 18 19 20 20 20 19 19 19 20 20 20 21 22 23 23 24 25 26 26 26 26 24 21 19 17 17 17 16 16 15 15 17 18 17 15 14 13
6 5 4 3 2 2 4 6 8 8 9 9 10 10 11 11 12 13 14 15 16 15 15 13 12 12 12 12 12 12 12 12 13 13 13 13 13 13 13 13 13 13 13 14 14 14 15 16 17 18 18 18 18 18 18 18 19 19 19 20 20 21 23 23 24 25 26 28 28 26 23 21 19 17 17 16 16 15 15 17 19 18 16 15 14
6 5 3 2 2 4 6 7 8 9 9 10 10 10 11 12 13 15 15 15 14 12 11 10 9 9 9 9 9 10 11 11 11 12 12 12 12 12 12 13 13 14 14 14 14 14 14 15 15 16 17 17 16 16 17 17 18 19 19 19 19 20 21 22 23 24 25 27 28 27 26 23 20 18 18 16 16 15 15 17 19 20 18 16 15
5 3 2 2 3 4 6 8 8 10 10 10 10 11 13 14 15 15 15 14 12 10 8 7 8 8 7 7 8 9 9 10 10 11 12 12 12 13 13 13 14 14 15 15 15 14 14 14 14 15 16 17 16 15 15 16 18 19 19 19 20 20 21 21 22 24 24 25 26 27 28 25 21 19 18 17 16 15 15 16 19 21 19 17 16
3 1 2 3 4 5 6 8 9 11 12 12 13 14 15 16 16 15 15 14 12 10 9 8 8 8 7 8 8 8 9 9 10 11 11 12 13 13 14 15 15 15 15 15 16 16 15 15 15 15 16 16 16 15 14 15 16 17 18 19 19 20 20 21 21 23 24 24 25 27 31 28 21 18 19 18 17 16 16 16 19 22 21 19 18
1 2 3 4 4 5 7 9 11 12 14 14 16 17 17 16 15 15 15 14 12 11 10 9 9 8 8 8 7 8 9 9 10 10 11 12 13 14 15 15 16 16 16 16 16 16 17 16 16 16 16 16 16 16 15 14 14 15 17 17 18 19 19 20 20 22 24 23 23 23 29 29 22 19 20 20 18 16 16 16 18 22 22 21 20
1 3 4 5 5 6 8 10 12 14 15 16 16 16 16 15 14 14 14 13 12 11 11 10 10 9 8 7 7 7 8 8 9 10 11 12 13 14 15 15 16 16 16 15 16 16 16 16 16 16 16 16 16 16 16 15 15 14 15 16 16 17 17 19 19 20 21 21 21 19 23 26 24 23 22 22 21 17 17 17 19 22 23 22 22
3 4 5 5 5 8 10 11 13 15 15 15 15 14 14 14 14 14 13 13 12 11 10 10 10 9 8 7 6 6 7 8 8 10 11 12 12 14 14 15 15 16 16 15 15 15 16 16 16 16 16 15 15 16 16 16 16 15 16 16 16 16 16 17 19 20 19 20 21 20 21 24 25 26 24 24 23 19 17 17 18 22 23 24 23
4 5 6 6 6 8 10 12 14 15 15 14 13 13 13 13 13 13 13 13 12 11 10 9 9 8 7 7 6 5 6 7 9 10 11 11 12 13 14 15 15 15 15 15 15 15 16 16 16 16 16 16 16 17 17 17 16 16 17 17 18 17 17 18 18 19 19 19 20 21 22 24 26 27 27 25 23 21 19 17 18 21 24 25 25
5 5 6 6 7 9 10 13 15 14 14 13 12 11 12 12 12 13 13 13 13 11 10 8 8 7 6 6 6 4 5 8 11 11 11 11 12 14 14 15 15 15 15 16 17 17 17 17 16 16 17 18 18 19 19 19 19 19 18 18 17 17 18 18 17 17 18 18 18 19 21 24 26 28 29 26 23 22 20 18 17 20 24 26 26
5 5 5 6 7 9 12 14 15 13 12 11 10 10 11 11 12 12 12 12 12 11 11 9 8 7 6 5 6 6 5 8 13 13 11 11 12 13 14 14 14 14 15 16 18 19 20 19 18 18 18 19 20 20 20 21 21 21 21 20 19 17 16 16 15 15 17 17 17 18 20 23 25 28 31 26 22 22 20 18 17 18 23 26 28
5 5 5 6 8 10 13 15 13 11 10 10 10 10 10 11 12 12 11 11 11 11 12 10 9 7 5 4 6 8 7 7 15 14 12 12 11 13 15 14 13 13 14 16 18 19 20 20 20 20 20 20 21 21 21 21 22 22 22 22 20 18 15 15 14 13 14 16 16 16 18 20 22 27 31 27 23 23 20 18 17 18 22 26 29
6 6 6 7 9 11 14 13 11 10 9 9 9 10 10 10 11 11 11 11 11 12 12 10 10 8 6 4 3 5 6 5 15 13 11 12 11 12 15 15 13 12 14 17 19 20 20 21 21 21 21 21 21 21 21 22 22 22 22 22 21 20 17 14 12 12 12 14 15 15 16 17 19 23 28 26 23 23 20 18 18 17 21 26 30
6 6 6 7 10 12 13 10 9 9 9 9 9 9 10 10 10 10 11 12 12 12 10 10 10 9 9 6 4 2 3 5 14 10 9 11 11 11 12 14 15 15 18 20 21 22 22 22 22 21 21 21 21 21 21 21 22 22 21 21 21 21 20 17 13 12 12 14 14 14 15 14 15 19 23 24 23 23 20 19 18 16 19 25 30
6 6 6 9 11 12 10 8 8 8 8 8 8 8 8 8 9 10 10 11 10 10 11 12 12 11 11 7 6 6 2 8 12 7 8 10 11 12 11 12 16 19 22 23 23 23 23 22 22 22 21 21 21 21 21 21 21 21 20 20 20 20 21 20 17 14 12 13 14 13 13 13 13 19 24 26 24 23 21 20 19 15 15 21 29
5 6 7 10 11 10 8 7 7 7 7 7 7 7 8 8 9 9 8 9 9 11 12 12 13 13 12 8 6 5 4 10 10 5 7 9 9 12 10 11 17 21 23 23 24 23 23 22 21 21 21 21 21 20 20 20 20 21 20 19 19 20 20 20 19 18 15 13 13 12 12 11 12 16 23 26 24 23 22 22 21 16 13 16 25
5 6 8 10 10 8 7 6 5 6 6 7 7 7 8 8 8 8 8 8 10 11 12 13 13 13 13 11 9 6 6 8 8 5 7 7 7 9 10 11 15 20 22 22 23 23 22 22 21 21 20 20 20 20 19 20 20 20 20 20 20 20 20 19 19 18 17 15 13 13 12 12 12 14 18 24 26 26 24 23 22 19 16 14 18
5 7 9 10 9 7 6 5 4 5 6 6 6 7 7 8 8 8 8 9 10 11 12 13 13 13 14 13 11 10 9 8 7 6 6 6 7 8 10 11 12 17 22 22 22 22 21 21 21 20 20 20 20 19 19 19 19 19 19 20 20 20 20 20 19 18 16 16 14 13 13 13 13 12 13 18 24 29 25 22 23 22 21 18 15
5 7 10 10 9 6 5 4 4 5 5 5 6 7 7 7 8 9 9 10 11 11 12 12 12 12 13 12 12 10 10 10 7 5 6 7 7 9 12 12 10 15 22 22 22 22 22 22 22 21 21 20 20 20 19 19 20 20 19 20 21 21 21 21 20 19 17 16 15 14 13 13 12 12 11 13 18 25 25 23 25 24 24 23 17
6 8 10 10 8 5 4 2 3 4 4 5 6 7 8 8 9 10 10 11 11 11 11 12 12 12 12 11 11 9 8 9 8 7 7 7 7 9 12 12 9 13 21 22 22 23 22 22 22 22 21 21 21 21 20 20 21 21 21 20 21 22 22 22 20 20 19 18 16 14 14 13 12 14 14 13 16 21 23 24 26 27 26 26 22
6 8 9 9 6 4 3 1 3 4 4 5 6 7 8 9 9 10 11 11 11 12 12 12 12 12 11 10 10 10 9 9 10 9 9 9 9 10 12 13 9 12 20 22 21 22 22 22 23 23 23 22 22 21 21 21 21 22 22 21 21 22 23 23 21 20 20 19 19 17 15 14 13 15 17 17 17 19 22 25 26 29 29 27 26
7 7 8 7 4 3 1 2 3 3 4 5 6 7 8 9 10 11 12 12 11 12 12 12 12 12 11 11 11 12 12 11 10 11 10 11 12 11 13 13 9 12 19 19 20 21 22 25 27 26 26 24 23 22 21 21 21 22 23 22 22 22 23 23 23 22 21 20 21 20 18 17 15 14 16 18 18 19 21 25 27 29 29 29 28
7 7 7 6 3 2 0 2 3 3 4 5 6 8 9 10 11 11 12 12 11 11 11 12 12 12 12 13 14 14 13 13 13 13 13 14 15 13 13 14 10 12 19 19 20 23 25 27 29 28 27 26 24 23 22 22 22 22 23 24 24 23 23 23 23 23 22 21 21 21 21 19 18 16 15 15 16 19 21 24 26 28 29 31 30
7 7 7 5 3 2 0 1 2 3 4 5 7 8 9 10 10 11 12 11 11 10 11 12 12 13 13 14 14 13 14 15 15 15 16 17 18 17 16 16 14 14 19 22 24 25 26 28 29 28 28 27 26 25 24 24 24 23 24 25 25 24 24 23 24 24 23 23 22 21 21 21 20 17 15 14 14 17 21 22 25 27 29 31 31
6 6 6 5 3 2 1 2 2 3 4 5 7 8 8 9 10 11 11 11 10 10 11 13 13 13 13 14 14 14 15 16 16 17 18 19 20 20 19 17 17 18 21 24 26 27 26 27 28 29 29 29 28 27 26 25 25 25 24 25 26 25 25 24 24 24 24 23 23 22 21 21 21 19 17 15 13 14 18 21 23 26 29 31 32
5 6 6 5 3 2 1 2 2 3 4 5 7 7 7 9 10 10 10 10 10 10 12 13 13 13 13 14 14 14 16 17 18 19 20 21 21 21 21 18 15 17 21 24 26 27 26 26 27 29 29 29 29 28 27 27 26 25 25 25 25 26 25 25 24 24 24 23 23 22 21 21 21 20 19 17 15 13 14 17 21 24 27 30 33
5 6 6 4 4 2 1 2 2 3 4 5 6 7 8 9 9 10 10 9 10 11 12 12 12 13 14 14 14 15 17 18 19 20 21 21 22 22 23 22 17 14 16 21 25 26 26 27 28 29 30 30 30 30 29 29 28 27 26 26 26 26 26 25 24 24 23 23 23 22 22 21 21 21 21 20 17 15 13 13 16 19 24 28 31
5 5 5 5 4 2 1 2 2 2 4 5 7 7 8 8 9 9 9 9 10 10 11 11 12 13 13 13 14 16 18 18 19 21 21 22 23 23 24 24 23 18 14 17 23 26 26 28 29 29 31 31 31 32 32 31 30 29 28 27 26 26 26 25 24 24 24 23 23 23 23 22 22 21 21 21 19 17 15 13 13 14 18 23 26
5 5 5 5 3 2 1 1 1 3 4 6 7 7 7 8 8 8 8 9 10 10 10 11 13 13 12 13 15 17 17 18 19 20 21 22 23 24 24 23 23 23 20 16 19 24 25 27 29 29 29 30 31 31 31 31 31 30 28 27 26 25 25 25 25 24 24 24 24 24 23 23 23 23 22 22 21 20 18 15 13 13 13 17 20
4 5 5 4 3 2 2 2 3 4 5 6 6 6 7 8 8 8 9 10 10 9 10 12 13 13 12 13 16 17 16 17 19 20 21 22 23 23 23 23 22 22 22 19 17 21 25 26 27 27 28 29 30 29 30 30 31 31 29 27 27 26 26 26 26 25 25 24 25 24 24 24 23 23 23 22 22 21 20 19 16 13 12 13 15
4 5 6 4 3 2 3 4 4 4 5 6 6 7 7 8 8 8 9 10 10 9 11 12 13 12 12 14 16 16 15 16 18 20 20 21 22 23 22 23 22 20 21 21 20 21 23 24 25 26 27 29 29 29 30 30 30 31 31 29 29 28 29 29 28 27 26 26 26 26 25 25 24 24 24 23 23 22 21 21 20 16 13 13 13
4 6 6 5 3 3 5 5 5 5 6 7 7 7 8 8 8 9 9 10 9 10 11 12 12 12 12 14 15 15 14 16 18 18 19 20 21 22 23 23 22 21 20 22 22 21 22 24 25 26 28 29 30 30 30 30 31 32 32 31 30 31 31 30 29 29 28 27 27 27 27 26 25 25 24 24 23 23 22 21 21 20 17 14 12
4 7 7 5 4 5 6 6 5 5 6 7 7 7 7 7 8 8 9 9 9 10 11 11 12 11 12 13 14 14 13 15 17 17 18 19 20 22 23 23 23 22 21 22 23 23 24 25 26 26 28 29 29 30 29 29 29 30 31 32 32 32 32 31 30 29 28 28 28 28 27 26 26 26 25 25 24 23 23 21 21 21 20 17 14
6 8 8 6 5 6 7 6 5 5 6 8 8 7 7 7 8 8 8 9 9 9 10 11 12 11 12 13 14 13 13 14 16 16 17 18 20 21 22 23 23 23 22 22 23 25 25 25 26 27 27 28 28 27 27 27 27 28 30 31 31 32 33 32 31 30 29 29 28 28 28 27 27 27 26 25 24 23 22 21 21 20 20 19 17
7 10 9 8 7 7 8 6 5 5 6 7 7 6 6 7 7 7 7 8 9 9 10 11 11 11 12 13 13 13 13 14 15 16 16 17 18 19 21 22 22 22 22 23 24 25 25 25 26 27 27 28 28 27 27 27 27 28 29 30 30 31 32 32 32 31 30 30 30 29 28 27 27 27 27 26 25 24 23 21 20 19 19 19 18
8 11 11 9 8 7 7 6 5 5 5 6 6 5 5 6 6 6 7 8 8 9 10 10 11 11 12 13 14 13 13 14 15 15 14 15 17 18 19 20 20 21 21 22 23 25 26 26 27 27 27 28 29 28 29 29 29 28 29 29 30 31 31 32 32 32 32 32 34 33 30 29 28 27 27 27 27 27 25 24 22 20 19 18 18
9 12 12 10 8 7 7 6 5 4 4 5 5 4 4 5 6 6 6 7 8 9 9 10 10 11 13 14 14 13 13 15 15 15 14 14 15 17 18 19 19 20 21 22 23 25 26 27 27 28 28 29 29 29 30 31 31 30 30 30 30 31 32 32 32 33 33 34 37 37 35 33 32 30 28 28 28 29 28 28 26 25 23 21 19
11 13 13 11 9 8 6 5 5 4 3 3 4 3 3 5 5 5 6 6 7 8 9 10 10 11 13 14 14 14 14 15 15 15 14 14 15 16 17 18 18 19 21 22 24 25 26 27 28 29 29 29 29 30 30 31 31 31 31 31 31 31 32 33 32 33 33 35 37 38 37 36 35 33 32 31 30 30 30 30 29 29 28 26 23
12 14 14 11 10 8 7 6 5 4 3 2 2 2 2 4 5 5 6 6 7 7 8 9 10 10 12 13 14 14 14 14 15 15 15 14 15 16 17 18 18 20 21 22 24 24 25 27 28 29 29 29 31 31 31 32 32 32 32 31 31 32 33 33 33 33 33 34 37 38 37 37 37 37 36 35 34 33 33 32 31 30 29 28 27
13 15 15 12 10 9 7 6 5 4 3 2 1 1 1 3 5 6 6 7 7 7 7 8 9 10 10 11 13 13 13 14 15 15 15 15 15 16 17 17 18 20 21 22 23 24 24 26 27 28 29 30 31 32 32 32 32 31 30 30 31 32 32 32 32 33 33 33 35 37 36 36 37 38 38 37 37 37 36 34 33 31 30 29 28
15 16 16 14 11 8 7 6 6 5 4 2 1 1 2 3 5 6 6 7 7 7 7 7 8 9 9 10 11 12 12 13 14 15 16 15 15 15 16 17 18 19 20 21 22 23 23 25 26 27 28 29 30 30 30 29 29 29 30 30 31 32 32 32 32 33 32 32 34 35 34 35 36 37 38 38 39 39 38 37 35 33 31 30 30
18 18 17 15 12 9 7 6 5 5 5 3 2 2 2 3 5 6 6 6 7 7 7 6 7 8 8 8 9 10 10 11 13 14 15 15 15 15 15 16 17 18 19 20 21 22 22 23 25 26 27 28 28 28 28 28 28 29 30 30 31 32 33 34 34 33 32 32 32 33 32 34 36 37 37 38 39 39 39 38 36 34 33 32 33
19 19 18 15 13 10 8 7 6 6 6 5 3 3 3 4 6 7 7 7 7 7 7 7 7 7 8 8 8 9 9 9 11 13 14 15 15 14 15 16 17 18 18 19 20 20 21 22 23 25 26 26 26 27 27 28 28 28 28 29 31 32 32 33 34 34 33 32 32 31 30 32 35 37 36 37 38 38 39 39 38 36 35 35 35
20 19 18 15 13 11 9 8 8 7 7 6 4 4 4 5 7 8 8 7 7 7 7 7 6 7 7 7 8 8 8 8 9 11 13 14 14 14 14 15 16 17 17 18 19 19 19 20 22 23 24 24 25 25 26 27 27 27 27 27 28 30 31 33 34 34 33 33 33 33 30 30 33 36 36 36 37 37 38 39 39 38 37 38 38
20 19 18 15 13 12 10 9 9 9 9 7 6 5 6 7 8 9 9 9 8 7 7 7 6 6 6 7 7 6 7 7 7 9 10 12 13 13 13 14 15 16 16 16 18 18 18 19 20 21 22 22 22 22 23 25 25 25 26 25 25 28 31 32 32 33 33 34 34 34 33 30 31 34 36 36 36 37 37 38 38 38 38 39 40
20 19 17 15 14 12 11 11 11 11 10 8 7 7 7 8 9 10 10 9 9 8 8 7 7 6 5 6 6 5 6 6 6 7 8 10 11 11 12 13 14 14 14 15 15 16 17 17 18 19 20 20 21 21 21 23 22 23 25 24 25 28 29 28 30 32 33 34 34 36 36 33 31 31 33 36 37 37 38 38 38 38 39 40 41
20 19 17 16 14 13 12 12 12 12 11 9 8 8 8 9 10 11 11 10 9 9 8 7 7 6 5 6 6 5 5 5 5 6 6 8 9 10 11 12 12 13 13 13 14 14 15 15 16 18 19 20 20 20 20 21 21 23 24 24 26 29 28 27 28 31 32 33 35 36 36 34 33 31 31 35 39 39 39 39 39 39 39 40 41
20 19 17 16 14 13 13 13 13 12 11 10 9 9 10 11 11 11 11 11 10 9 8 7 7 6 6 6 6 6 5 5 5 5 5 6 7 8 9 10 11 12 12 12 12 12 13 14 14 16 17 18 19 19 20 20 21 22 24 25 27 29 29 29 29 29 30 32 34 34 35 35 36 34 32 34 37 39 40 41 41 41 40 41 41
19 18 17 16 15 14 14 13 13 12 11 10 10 11 11 12 12 12 11 11 10 9 8 8 7 7 6 6 6 6 5 5 5 5 5 5 5 6 8 9 10 10 11 11 12 12 12 12 13 14 15 16 17 17 18 19 20 22 23 25 27 28 28 29 28 26 28 31 32 32 33 35 37 37 35 34 34 37 40 41 42 42 42 42 42
18 17 16 16 15 16 15 14 13 12 12 11 11 12 13 14 14 13 12 11 10 9 9 8 7 7 7 6 6 6 6 5 5 5 4 4 3 4 6 7 7 8 9 10 11 10 10 10 11 12 13 14 15 16 17 19 19 21 22 23 24 26 26 27 27 25 26 29 30 31 33 35 36 37 37 35 32 35 40 41 41 43 43 43 43
Wind_Direction
173 170 173 184 192 207 310 332 335 337 337 333 326 324 323 325 329 332 334 333 330 326 323 319 316 313 311 313 314 315 316 316 315 315 315 316 316 316 316 315 315 315 314 314 313 311 310 308 308 308 305 302 300 299 297 294 291 287 284 284 284 282 279 276 276 274 271 269 270 270 267 267 269 269 270 270 272 267 253 240 233 235 230 220 221
181 178 181 195 216 255 311 329 336 339 336 330 325 324 324 328 331 332 333 331 326 322 320 318 316 313 313 315 316 317 317 318 319 320 320 321 322 322 323 324 324 323 323 322 319 315 312 310 310 308 306 305 303 301 299 297 295 293 291 289 289 288 283 278 275 273 271 268 267 265 264 263 263 264 266 267 270 268 254 239 231 230 226 218 218
187 186 186 205 251 302 325 337 345 343 336 332 329 328 328 331 332 331 331 328 328 327 326 325 322 321 323 325 325 324 322 322 323 322 322 323 325 327 329 332 332 331 330 327 323 318 314 311 308 307 306 305 304 304 302 301 299 297 296 294 293 291 286 282 277 272 269 268 264 260 260 260 258 259 261 264 268 267 255 239 230 226 222 215 215
191 193 198 230 300 325 337 347 351 344 336 335 337 338 337 337 335 333 333 335 340 342 340 337 335 341 342 336 333 328 323 324 323 323 324 326 329 333 337 338 338 338 337 333 329 325 322 319 317 316 314 311 310 310 308 306 305 303 301 299 297 293 289 286 282 275 271 270 264 257 257 258 255 255 257 260 265 265 256 239 228 224 220 213 211
190 198 230 285 318 332 343 348 349 341 336 339 345 347 344 341 339 340 343 349 357 3 3 0 2 4 353 340 332 326 324 324 324 324 325 329 335 339 340 341 342 342 342 340 338 336 334 332 331 327 322 318 316 316 315 311 310 307 306 305 303 299 295 292 288 283 276 271 269 261 255 255 254 251 254 256 261 263 256 240 228 223 219 211 208
189 237 288 301 311 330 343 345 345 341 340 346 350 349 347 345 346 348 352 360 9 16 20 18 14 6 348 339 333 328 328 326 326 326 327 333 338 341 341 342 343 344 344 345 344 344 344 343 342 339 335 331 324 321 319 314 311 311 311 309 307 305 301 297 294 290 283 276 274 264 249 247 250 250 254 255 257 262 257 242 229 224 219 211 206
197 291 298 299 309 333 345 344 343 343 346 349 349 347 347 348 350 353 357 6 15 20 21 15 8 1 346 338 331 327 327 324 324 325 329 338 342 341 340 340 342 344 345 346 346 346 346 347 347 346 346 343 334 328 322 316 314 314 315 314 312 310 306 304 300 294 289 282 279 266 245 241 246 252 255 254 254 259 258 246 230 224 219 211 206
265 292 292 298 316 337 344 345 345 347 349 346 344 345 346 349 352 356 360 8 18 23 18 6 357 353 344 333 322 321 324 320 323 327 334 342 344 340 339 339 341 343 345 347 347 347 347 347 347 348 347 346 343 337 331 323 317 313 314 313 312 314 314 312 306 299 294 287 282 269 248 244 249 253 253 253 252 255 258 250 234 225 219 212 208
272 282 286 298 321 335 341 344 346 348 345 341 342 344 347 350 353 357 3 9 18 24 18 1 349 347 340 323 309 314 320 318 322 328 336 343 343 341 341 342 343 344 345 348 349 349 348 347 347 348 347 348 348 346 341 335 326 316 309 304 302 308 316 317 311 304 299 292 282 268 255 250 249 248 248 250 250 251 254 252 239 227 220 213 209
270 278 285 301 324 334 338 340 342 344 341 339 344 348 352 353 353 358 5 10 14 20 21 2 346 343 332 311 296 308 329 331 330 328 332 340 343 345 346 346 346 346 346 349 351 351 350 348 348 348 348 350 352 351 348 344 338 328 317 308 301 298 301 306 312 312 303 296 288 272 260 253 246 243 243 245 247 248 249 252 243 229 221 214 210
274 282 291 306 328 336 338 337 337 339 338 341 348 354 356 355 355 360 4 9 11 16 18 5 351 344 325 300 279 285 332 348 343 335 336 345 349 349 348 347 347 347 348 351 352 351 350 350 351 352 353 352 352 354 351 347 345 341 334 327 315 302 296 296 306 316 309 301 296 283 267 255 247 242 240 239 242 244 246 250 247 231 222 215 209
285 294 304 319 334 337 335 332 332 335 338 343 353 358 359 359 359 0 3 8 13 15 12 9 3 351 330 301 276 270 292 340 347 342 346 355 354 349 343 342 344 346 349 352 351 351 353 355 357 357 357 355 355 356 354 349 346 345 343 340 333 318 303 295 297 310 316 310 300 291 277 259 247 242 238 234 235 240 244 248 249 235 223 215 209
295 305 315 328 334 333 330 328 330 334 339 348 358 3 6 5 1 359 2 7 13 13 8 9 11 6 349 304 282 276 265 327 347 342 345 354 354 349 345 345 346 346 348 349 350 353 358 2 3 3 1 358 358 358 356 352 348 348 346 344 343 336 321 305 294 296 313 317 304 295 284 265 254 246 236 228 229 235 241 247 249 240 225 215 209
292 302 317 329 330 327 326 327 331 336 343 355 2 7 9 5 0 0 2 4 9 9 7 11 14 17 11 341 306 285 245 322 347 338 344 358 360 354 349 350 353 352 353 354 356 0 4 6 6 5 4 2 1 359 358 356 353 352 352 349 348 348 340 326 306 292 295 306 304 300 290 272 262 247 226 219 225 230 236 244 245 242 228 216 209
284 299 318 326 324 324 324 327 335 341 351 0 4 8 8 4 2 1 0 2 4 5 11 20 22 21 21 23 30 35 206 333 350 347 2 11 9 2 355 356 360 359 2 4 5 6 6 6 6 4 3 3 2 1 360 359 357 356 356 356 356 354 349 341 330 311 293 292 300 304 299 284 265 247 227 220 226 229 235 241 241 241 231 218 211
279 300 317 321 322 321 322 330 341 349 357 2 4 7 7 4 3 2 2 3 3 8 18 23 25 26 28 31 34 47 44 347 356 359 4 8 6 7 5 0 2 2 3 5 5 6 7 5 3 2 1 1 0 0 0 358 357 357 359 0 1 360 355 350 344 335 314 294 293 300 303 297 271 251 240 231 227 230 238 242 242 243 237 223 214
279 303 317 320 321 319 322 335 345 355 3 5 4 5 7 7 8 10 11 9 11 18 21 20 22 25 29 36 36 40 4 354 8 3 350 2 7 10 7 354 358 2 1 1 3 4 6 4 2 359 358 357 358 358 358 357 356 355 358 2 3 1 357 355 351 346 336 313 294 289 294 298 279 256 245 238 232 234 238 238 238 243 245 233 220
284 308 319 321 319 317 325 336 348 3 9 9 5 5 11 14 18 22 20 20 23 22 19 19 20 19 23 31 32 26 8 7 15 356 347 2 7 11 9 355 357 2 359 358 0 1 1 1 359 356 354 353 354 356 357 356 355 354 355 359 1 0 357 355 353 350 345 334 314 295 286 286 284 270 255 251 243 236 238 237 234 238 245 243 230
293 313 322 322 318 315 324 334 354 12 13 9 8 12 19 24 27 28 27 28 27 23 21 21 20 16 17 21 21 19 20 24 20 360 349 350 353 357 359 357 354 359 0 357 357 359 358 358 356 353 353 352 351 355 357 354 353 352 353 356 357 358 358 356 354 352 348 342 330 314 296 282 283 284 275 267 249 232 229 236 235 235 240 245 246
302 322 325 319 311 312 321 334 6 19 14 11 16 23 29 31 30 29 31 30 25 24 25 24 21 18 16 15 16 20 22 24 26 19 357 342 346 349 352 358 352 352 358 358 358 359 357 356 356 356 356 356 355 357 359 356 353 351 352 354 355 355 356 355 355 354 352 347 338 328 314 293 282 281 279 275 253 232 226 234 235 233 236 241 249
315 326 320 310 303 310 313 334 23 25 14 19 26 31 33 32 31 30 31 29 24 24 26 25 24 23 20 19 20 23 22 21 22 23 12 357 352 345 349 2 1 353 359 1 1 1 359 360 1 3 5 3 1 3 3 359 355 352 353 355 354 352 352 353 355 355 355 354 348 340 331 313 289 273 267 262 252 242 238 239 237 234 236 240 242
316 319 312 305 303 310 308 1 38 25 20 29 32 33 32 30 32 32 30 28 23 23 24 23 23 22 22 22 21 23 22 19 17 19 20 11 1 347 349 4 6 2 7 5 4 7 7 9 12 13 15 12 8 8 6 3 358 353 352 354 354 352 350 350 353 354 355 356 354 350 344 334 310 283 270 261 252 247 244 242 242 239 239 241 238
310 312 311 309 309 304 307 40 39 27 28 35 34 33 32 32 33 31 29 26 20 20 21 20 19 17 16 18 19 21 20 21 21 21 20 15 9 357 357 13 16 12 18 13 10 18 18 16 18 19 18 16 14 13 10 6 1 355 352 354 354 353 350 349 350 352 353 355 355 353 350 344 332 311 288 275 260 250 245 243 245 245 241 239 235
307 314 314 310 306 290 327 49 36 31 33 37 38 35 34 33 31 29 26 21 16 18 18 16 16 13 14 18 20 19 19 25 28 24 22 21 23 18 14 28 30 19 29 31 23 24 23 20 21 19 18 18 17 16 13 7 3 358 354 353 354 353 352 350 349 350 352 354 354 353 351 346 341 335 319 298 272 253 248 243 242 244 242 239 234
308 317 313 298 278 253 93 54 37 30 31 37 42 40 36 31 27 26 23 17 14 17 17 15 14 14 18 22 22 22 26 32 31 28 31 33 37 39 36 41 42 27 30 36 33 29 24 23 22 20 19 19 18 17 13 9 5 1 358 355 354 354 353 352 351 351 351 353 354 352 351 349 344 342 335 319 291 263 252 246 240 237 239 242 239
306 317 306 282 247 213 138 62 36 20 25 41 48 43 35 29 25 24 21 16 16 19 18 16 16 20 25 27 27 30 34 36 36 38 44 45 44 45 46 47 49 42 34 34 35 33 27 24 24 22 22 21 20 18 14 11 8 4 4 1 358 357 357 355 353 352 351 352 353 353 352 351 348 345 341 333 318 288 262 251 243 235 234 238 241
299 311 298 264 209 177 120 58 20 8 29 49 53 44 34 29 26 26 21 17 21 21 19 19 22 28 33 33 34 36 40 42 45 49 50 50 48 47 49 51 48 45 41 36 35 34 30 30 29 27 26 25 23 22 19 17 14 11 11 9 5 3 2 1 358 355 354 352 353 355 355 353 351 348 346 342 335 319 288 264 251 240 233 233 238
297 302 284 234 177 150 96 43 3 12 45 57 55 43 35 30 27 28 23 22 27 24 21 25 33 39 39 39 40 43 47 49 52 54 53 52 52 49 49 51 50 47 42 38 37 34 31 33 35 31 30 30 27 26 26 23 20 19 19 16 12 9 6 4 1 358 357 356 355 356 356 356 354 351 349 348 344 336 320 294 272 253 240 237 237
298 291 259 211 166 135 85 25 1 43 61 60 54 43 37 34 31 32 28 31 34 27 28 37 44 47 44 44 49 52 54 55 55 56 55 53 52 51 49 49 51 53 51 43 40 37 33 34 36 34 33 33 30 29 29 26 24 24 24 21 18 13 9 6 4 2 0 0 0 359 358 357 356 353 351 350 349 344 335 320 304 283 258 250 242
292 271 233 197 157 132 96 44 52 78 70 62 56 49 44 40 39 40 39 43 39 32 41 51 52 51 49 52 57 57 57 58 58 58 57 55 53 52 51 50 50 52 57 55 44 41 39 37 37 35 35 36 34 31 30 28 27 28 28 25 22 18 15 11 8 6 4 3 3 2 0 359 358 356 354 352 352 350 345 336 322 309 288 268 251
279 247 217 185 156 136 112 103 103 89 75 69 63 57 51 47 49 51 51 51 43 42 53 58 58 56 56 60 61 61 60 61 61 60 58 57 55 54 53 52 50 50 56 61 53 45 44 41 39 36 36 38 36 33 33 30 29 31 32 30 27 24 22 19 16 13 10 9 7 4 3 2 360 358 356 354 354 353 352 350 341 325 309 290 269
261 226 206 181 161 137 123 122 114 97 80 74 69 61 55 55 59 59 58 55 48 53 61 63 64 62 62 65 65 63 63 63 64 63 61 60 58 57 56 54 53 51 57 65 62 53 48 46 43 37 36 39 37 34 33 31 30 32 34 34 31 29 27 24 21 18 16 15 13 9 6 5 3 1 359 357 356 354 353 353 353 347 331 311 290
249 217 202 183 167 140 134 134 121 103 83 75 70 63 58 62 66 64 62 59 55 62 68 69 71 68 67 69 69 67 66 65 67 65 64 63 60 59 57 56 55 53 56 64 66 61 54 50 47 40 36 37 36 34 33 30 29 30 33 34 32 32 31 27 24 21 18 18 17 12 9 8 7 5 3 1 359 356 355 353 354 355 350 336 313
232 213 205 188 169 145 140 138 123 104 82 72 69 63 62 67 70 68 65 64 64 70 76 78 76 73 72 74 73 71 69 68 69 68 66 64 61 59 57 54 54 53 53 58 62 60 54 50 49 46 41 38 36 34 34 33 31 31 33 34 33 33 32 29 26 23 20 20 19 14 11 10 10 9 7 4 2 359 357 356 354 354 355 352 340
220 211 204 191 172 150 143 139 125 106 79 69 68 65 66 71 72 70 71 72 73 78 83 83 81 79 78 78 76 73 71 71 71 69 67 64 62 59 57 53 51 51 52 55 59 59 55 50 48 47 46 44 41 37 36 37 36 35 36 36 36 35 33 31 29 26 24 23 22 18 15 14 13 12 10 9 7 4 1 359 356 354 353 353 350
219 212 201 188 171 150 145 142 128 107 79 67 67 67 71 76 77 76 77 79 82 86 89 88 87 86 83 82 80 76 73 73 73 71 67 66 64 61 58 54 51 50 52 54 58 60 59 55 51 47 46 46 45 42 41 42 41 39 40 39 38 38 36 34 31 29 28 27 27 24 20 19 18 15 14 13 12 10 8 5 2 358 354 351 350
216 215 205 187 167 149 144 144 132 109 83 67 64 69 78 82 83 83 83 87 89 91 91 91 91 90 88 86 84 80 77 76 76 74 69 67 65 62 59 55 52 52 53 55 56 58 58 57 54 50 47 46 44 42 42 44 43 42 43 42 40 40 38 35 32 30 29 30 30 28 24 24 23 19 18 17 16 16 14 12 10 7 3 357 351
214 214 207 190 169 152 146 148 139 115 92 71 62 69 83 90 93 91 90 93 95 96 96 96 95 93 92 91 87 83 78 75 75 73 69 66 64 62 60 57 55 55 56 56 56 56 56 56 53 50 48 47 45 42 40 42 42 41 43 44 41 41 41 37 33 31 30 32 32 28 25 27 27 24 22 21 19 20 18 16 14 12 9 6 359
213 212 206 192 174 161 156 159 153 133 107 78 64 74 92 99 104 103 100 101 100 102 103 101 99 97 94 93 89 84 76 72 70 68 65 62 60 60 58 56 56 57 58 57 56 56 55 55 53 50 48 46 45 44 42 42 43 41 43 44 41 41 41 38 35 32 31 33 34 30 25 27 28 26 25 24 22 21 20 18 16 13 10 7 4
212 211 207 196 181 171 168 171 169 156 136 93 65 81 108 113 116 116 114 111 106 107 109 108 104 98 94 91 88 84 77 71 66 63 61 59 57 57 55 53 53 55 57 57 56 55 54 53 52 50 48 45 44 43 41 41 42 41 41 44 43 42 42 38 34 33 30 32 36 32 26 26 28 26 25 24 23 22 21 18 17 15 12 7 5
208 207 204 196 185 181 179 180 182 174 161 144 90 103 138 130 127 129 127 121 115 114 113 113 109 101 96 92 88 84 78 71 65 59 58 58 58 57 54 52 52 52 54 55 55 55 53 53 53 51 48 46 44 42 39 39 40 40 40 42 44 45 45 41 36 34 31 31 36 35 27 25 28 28 24 22 23 23 21 19 17 15 13 11 8
207 204 199 192 187 187 189 191 191 190 189 194 178 152 166 150 137 137 138 130 125 124 123 118 114 109 102 95 89 85 77 70 64 58 54 54 57 58 56 53 52 52 53 55 55 55 53 53 53 51 50 48 46 43 41 40 40 41 40 41 43 44 45 44 40 36 32 32 36 37 29 25 30 31 27 24 24 24 22 20 19 17 16 15 13
206 202 196 192 189 190 196 200 200 205 210 211 206 188 178 165 150 143 143 140 136 136 134 127 122 120 116 105 97 90 80 71 64 57 53 51 52 55 56 55 53 53 54 56 57 56 55 54 53 52 51 49 47 45 42 41 41 41 40 40 41 42 43 43 41 38 34 33 36 38 30 25 30 33 29 26 26 25 24 22 20 19 19 19 17
205 200 195 193 194 195 199 204 205 211 217 216 211 199 190 179 163 153 149 149 149 149 147 141 133 128 126 118 110 104 91 75 65 58 53 49 48 50 53 55 54 53 54 57 58 58 58 57 54 52 51 49 46 44 41 41 41 42 41 40 41 44 43 42 41 38 36 35 37 38 30 22 27 32 29 26 26 26 25 23 20 19 20 21 21
204 199 195 194 198 201 204 208 210 214 216 215 210 202 198 189 173 163 158 158 160 160 157 153 142 134 132 128 120 113 101 84 69 61 53 49 47 47 51 55 55 53 54 57 59 60 59 58 55 52 51 50 47 43 41 41 41 41 42 41 43 46 45 43 41 38 36 36 39 40 32 22 25 30 27 25 27 27 26 24 22 21 21 22 22
201 197 196 198 202 206 210 212 214 215 215 213 210 204 203 195 180 170 164 163 166 168 166 163 152 141 138 135 129 121 112 99 80 67 57 49 47 46 49 55 57 55 54 56 59 60 59 58 55 53 51 50 48 44 41 41 41 42 44 42 43 47 46 44 42 38 36 35 38 41 36 26 26 30 27 25 27 28 28 26 24 23 23 24 22
198 197 199 203 207 210 214 216 215 213 214 213 209 205 205 197 185 174 168 167 171 173 174 170 160 154 149 144 144 136 123 115 98 81 64 51 47 47 50 55 59 58 55 56 59 60 60 58 54 52 50 48 47 44 41 41 40 42 45 44 44 48 47 43 41 39 36 34 35 39 37 30 29 31 28 26 28 28 27 27 26 25 26 26 23
196 197 201 206 211 216 218 217 214 213 214 214 209 207 205 197 187 178 170 170 174 177 178 176 169 167 164 158 159 155 139 129 114 96 77 56 47 47 51 54 59 61 58 57 58 60 61 59 54 51 48 45 44 42 40 39 37 40 44 43 44 47 45 43 40 37 35 34 33 36 35 30 32 34 30 28 29 27 26 27 26 25 27 29 26
194 197 203 208 213 217 218 215 213 212 215 216 210 207 203 194 187 180 173 171 177 180 181 182 179 179 178 171 168 166 157 143 127 112 93 65 44 46 54 54 56 59 58 58 59 60 61 58 52 49 47 44 42 41 39 38 35 37 40 40 41 43 41 40 39 34 32 33 33 35 34 30 31 33 33 33 30 25 24 26 25 25 27 30 28
197 200 206 211 213 212 211 211 212 214 216 215 210 207 201 191 183 178 174 174 179 182 184 186 184 182 180 177 173 172 171 160 142 128 110 80 47 44 57 58 55 56 57 58 59 57 56 53 49 48 45 42 41 41 40 39 36 35 38 38 39 40 38 37 36 32 29 31 31 33 35 32 30 29 31 35 32 27 26 25 24 23 26 29 29
201 205 208 212 211 206 203 205 209 213 213 210 209 207 198 189 182 175 172 176 181 183 186 187 186 183 179 179 180 177 178 176 158 143 128 98 59 49 60 61 55 55 57 58 58 53 50 49 47 47 44 40 39 39 39 39 36 35 37 38 38 40 39 37 35 31 26 25 27 30 33 33 31 29 29 30 28 26 28 27 24 22 23 27 28